Home > Weather > Lugano > Past weeks

Flag for Switzerland Weather for the Past 2 Weeks in Lugano, Switzerland

Now
36 °F

Clear.


Feels Like: 36 °F
Forecast: 32 / 46 °F
Wind: 2 mph from North

Location: Lugano Airport

Current Time: Feb 6, 2016 at 12:13:09 AM

Latest Report: Feb 5, 2016 at 11:20 PM


Visibility: 10 mi

Pressure: 30.42 "Hg

Humidity: 81%

Dew point: 30 °F

Location of LuganoLocation

Historic Weather in Lugano — Graph

°F

Lugano Temperature Yesterday

Maximum temperature yesterday: 57 °F (at 2:20 PM)
Minimum temperature yesterday: 34 °F (at 5:50 AM)
Average temperature yesterday: 44 °F

High & Low Weather Summary for the Past Weeks

 TemperatureHumidityPressure
High59 °F (Jan 31, 2:50 PM)100% (Jan 27, 2:20 AM)30.60 "Hg (Jan 27, 2:20 AM)
Low21 °F (Jan 22, 8:20 AM)18% (Feb 3, 10:20 PM)29.86 "Hg (Feb 3, 3:20 PM)
Average41 °F76%30.32 "Hg
* Reported Jan 21 10:20 PM — Feb 5 10:50 PM, Lugano, Weather by CustomWeather, © 2016

Note: Actual official high and low records may vary slightly from our data, if they occured in-between our weather recording intervals... More about our weather records

Advertising

Lugano Weather History for the Previous 24 Hours

 ConditionsComfort  
Time TempWeatherWind HumidityBarometerVisibility
10:50 PM
Fri, Feb 5
37 °FClear.1 mph81%30.42 "Hg10 mi
10:20 PM37 °FChilly.1 mph81%30.42 "HgN/A
9:50 PM37 °FChilly.1 mph81%30.39 "HgN/A
9:20 PM36 °FClear.2 mph81%30.39 "Hg10 mi
8:50 PM41 °FClear.2 mph66%30.39 "Hg10 mi
8:20 PM46 °FPassing clouds.5 mph57%30.36 "HgN/A
7:50 PM48 °FClear.8 mph54%30.36 "Hg10 mi
7:20 PM46 °FPassing clouds.6 mph57%30.33 "HgN/A
6:50 PM46 °FPassing clouds.7 mph57%30.30 "HgN/A
6:20 PM50 °FClear.7 mph47%30.30 "Hg10 mi
5:50 PM50 °FClear.7 mph50%30.27 "Hg10 mi
5:20 PM52 °FPassing clouds.7 mph47%30.27 "HgN/A
4:50 PM54 °FSunny.8 mph44%30.27 "Hg10 mi
4:20 PM54 °FSunny.9 mph47%30.27 "Hg10 mi
3:50 PM55 °FSunny.8 mph44%30.27 "Hg10 mi
3:20 PM55 °FSunny.8 mph44%30.24 "Hg10 mi
2:50 PM57 °FSunny.9 mph39%30.24 "Hg10 mi
2:20 PM57 °FSunny.8 mph39%30.24 "Hg10 mi
1:50 PM55 °FPassing clouds.8 mph44%30.24 "HgN/A
1:20 PM54 °FPassing clouds.7 mph41%30.27 "HgN/A
12:50 PM54 °FPassing clouds.3 mph41%30.27 "HgN/A
12:20 PM52 °FPassing clouds.2 mph47%30.27 "HgN/A
11:50 AM52 °FSunny.1 mph47%30.27 "Hg10 mi
11:20 AM48 °FPassing clouds.2 mph54%30.27 "HgN/A
10:50 AM46 °FSunny.2 mph57%30.27 "Hg10 mi
10:20 AM46 °FSunny.2 mph66%30.27 "Hg10 mi
9:50 AM43 °FSunny.1 mph71%30.24 "Hg10 mi
9:20 AM39 °FPassing clouds.1 mph81%30.24 "HgN/A
8:50 AM36 °FPassing clouds.2 mph87%30.24 "HgN/A
8:20 AM34 °FPassing clouds.1 mph93%30.24 "HgN/A
7:50 AM34 °FPassing clouds.2 mph87%30.21 "HgN/A
7:20 AM34 °FPassing clouds.2 mph93%30.18 "HgN/A
6:20 AM34 °FClear.6 mph87%30.18 "Hg10 mi
5:50 AM34 °FClear.3 mph87%30.15 "Hg10 mi
5:20 AM36 °FClear.2 mph81%30.15 "Hg10 mi
4:50 AM36 °FClear.3 mph81%30.15 "Hg10 mi
4:20 AM37 °FClear.2 mph81%30.15 "Hg10 mi
3:20 AM37 °FClear.2 mph75%30.15 "Hg10 mi
2:50 AM41 °FClear.3 mph70%30.15 "Hg10 mi
2:20 AM41 °FClear.5 mph76%30.15 "Hg10 mi
1:50 AM41 °FClear.3 mph76%30.15 "Hg10 mi
1:20 AM43 °FClear.3 mph71%30.15 "Hg10 mi
12:50 AM43 °FPassing clouds.8 mph66%30.15 "HgN/A
12:20 AM43 °FPassing clouds.6 mph66%30.15 "HgN/A
Weather by CustomWeather, © 2016

See weather overviewHow to use our weather pages